Year,Month,Day,Hour,Minute,Value (Times are PST for windspeed in km/hr)
2016,03,14,00,00,18.60
2016,03,14,00,01,12.40
2016,03,14,00,02,12.40
2016,03,14,00,03,18.90
2016,03,14,00,04,17.40
2016,03,14,00,05,18.60
2016,03,14,00,06,25.40
2016,03,14,00,07,20.20
2016,03,14,00,08,11.40
2016,03,14,00,09,22.50
2016,03,14,00,10,16.50
2016,03,14,00,11,15.60
2016,03,14,00,12,12.10
2016,03,14,00,13,17.70
2016,03,14,00,14,16.00
2016,03,14,00,15,15.50
2016,03,14,00,16,15.00
2016,03,14,00,17,10.30
2016,03,14,00,18,13.80
2016,03,14,00,19,11.30
2016,03,14,00,20,12.10
2016,03,14,00,21,13.90
2016,03,14,00,22,11.30
2016,03,14,00,23,8.20
2016,03,14,00,24,7.40
2016,03,14,00,25,7.50
2016,03,14,00,26,7.00
2016,03,14,00,27,11.70
2016,03,14,00,28,15.40
2016,03,14,00,29,11.10
2016,03,14,00,30,11.70
2016,03,14,00,31,8.20
2016,03,14,00,32,5.50
2016,03,14,00,33,10.20
2016,03,14,00,34,6.60
2016,03,14,00,35,9.30
2016,03,14,00,36,8.00
2016,03,14,00,37,7.80
2016,03,14,00,38,7.70
2016,03,14,00,39,6.60
2016,03,14,00,40,6.70
2016,03,14,00,41,7.70
2016,03,14,00,42,7.10
2016,03,14,00,43,5.60
2016,03,14,00,44,7.30
2016,03,14,00,45,9.20
2016,03,14,00,46,5.80
2016,03,14,00,47,4.50
2016,03,14,00,48,5.20
2016,03,14,00,49,6.60
2016,03,14,00,50,3.50
2016,03,14,00,51,5.50
2016,03,14,00,52,4.90
2016,03,14,00,53,4.60
2016,03,14,00,54,3.00
2016,03,14,00,55,2.30
2016,03,14,00,56,1.90
2016,03,14,00,57,4.90
2016,03,14,00,58,4.60
2016,03,14,00,59,4.60
2016,03,14,01,00,4.70
2016,03,14,01,01,4.40
2016,03,14,01,02,4.20
2016,03,14,01,03,4.70
2016,03,14,01,04,6.00
2016,03,14,01,05,5.60
2016,03,14,01,06,4.50
2016,03,14,01,07,3.90
2016,03,14,01,08,4.10
2016,03,14,01,09,1.10
2016,03,14,01,10,2.60
2016,03,14,01,11,0.50
2016,03,14,01,12,0.00
2016,03,14,01,13,0.60
2016,03,14,01,14,3.40
2016,03,14,01,15,0.10
2016,03,14,01,16,0.10
2016,03,14,01,17,2.30
2016,03,14,01,18,3.40
2016,03,14,01,19,3.90
2016,03,14,01,20,2.30
2016,03,14,01,21,4.70
2016,03,14,01,22,4.70
2016,03,14,01,23,3.80
2016,03,14,01,24,0.40
2016,03,14,01,25,3.80
2016,03,14,01,26,4.50
2016,03,14,01,27,2.80
2016,03,14,01,28,2.90
2016,03,14,01,29,4.90
2016,03,14,01,30,6.40
2016,03,14,01,31,5.00
2016,03,14,01,32,6.10
2016,03,14,01,33,5.60
2016,03,14,01,34,4.30
2016,03,14,01,35,4.70
2016,03,14,01,36,5.00
2016,03,14,01,37,1.70
2016,03,14,01,38,4.10
2016,03,14,01,39,6.40
2016,03,14,01,40,5.70
2016,03,14,01,41,5.50
2016,03,14,01,42,5.70
2016,03,14,01,43,4.60
2016,03,14,01,44,5.30
2016,03,14,01,45,5.00
2016,03,14,01,46,7.50
2016,03,14,01,47,4.70
2016,03,14,01,48,4.30
2016,03,14,01,49,5.10
2016,03,14,01,50,5.90
2016,03,14,01,51,6.10
2016,03,14,01,52,5.60
2016,03,14,01,53,5.50
2016,03,14,01,54,5.70
2016,03,14,01,55,4.90
2016,03,14,01,56,5.70
2016,03,14,01,57,4.90
2016,03,14,01,58,4.80
2016,03,14,01,59,4.90
2016,03,14,02,00,4.30
2016,03,14,02,01,4.90
2016,03,14,02,02,4.10
2016,03,14,02,03,4.60
2016,03,14,02,04,4.80
2016,03,14,02,05,2.80
2016,03,14,02,06,1.70
2016,03,14,02,07,1.20
2016,03,14,02,08,4.10
2016,03,14,02,09,2.20
2016,03,14,02,10,3.60
2016,03,14,02,11,3.80
2016,03,14,02,12,3.60
2016,03,14,02,13,3.40
2016,03,14,02,14,3.90
2016,03,14,02,15,3.10
2016,03,14,02,16,3.10
2016,03,14,02,17,2.60
2016,03,14,02,18,2.10
2016,03,14,02,19,1.40
2016,03,14,02,20,0.00
2016,03,14,02,21,1.80
2016,03,14,02,22,2.40
2016,03,14,02,23,2.10
2016,03,14,02,24,2.20
2016,03,14,02,25,2.40
2016,03,14,02,26,3.70
2016,03,14,02,27,2.90
2016,03,14,02,28,1.70
2016,03,14,02,29,2.70
2016,03,14,02,30,3.70
2016,03,14,02,31,4.20
2016,03,14,02,32,5.50
2016,03,14,02,33,8.40
2016,03,14,02,34,8.90
2016,03,14,02,35,9.00
2016,03,14,02,36,7.50
2016,03,14,02,37,9.80
2016,03,14,02,38,6.10
2016,03,14,02,39,5.90
2016,03,14,02,40,5.60
2016,03,14,02,41,6.30
2016,03,14,02,42,5.70
2016,03,14,02,43,5.80
2016,03,14,02,44,8.10
2016,03,14,02,45,5.30
2016,03,14,02,46,5.40
2016,03,14,02,47,4.30
2016,03,14,02,48,4.80
2016,03,14,02,49,5.20
2016,03,14,02,50,12.50
2016,03,14,02,51,12.60
2016,03,14,02,52,8.20
2016,03,14,02,53,5.80
2016,03,14,02,54,10.80
2016,03,14,02,55,10.40
2016,03,14,02,56,10.60
2016,03,14,02,57,8.30
2016,03,14,02,58,10.50
2016,03,14,02,59,17.30
2016,03,14,03,00,14.20
2016,03,14,03,01,9.90
2016,03,14,03,02,12.10
2016,03,14,03,03,14.70
2016,03,14,03,04,6.80
2016,03,14,03,05,9.10
2016,03,14,03,06,12.40
2016,03,14,03,07,7.70
2016,03,14,03,08,9.10
2016,03,14,03,09,9.00
2016,03,14,03,10,13.00
2016,03,14,03,11,10.60
2016,03,14,03,12,6.80
2016,03,14,03,13,6.40
2016,03,14,03,14,7.00
2016,03,14,03,15,7.30
2016,03,14,03,16,7.20
2016,03,14,03,17,5.80
2016,03,14,03,18,4.50
2016,03,14,03,19,5.70
2016,03,14,03,20,5.20
2016,03,14,03,21,4.40
2016,03,14,03,22,6.10
2016,03,14,03,23,7.10
2016,03,14,03,24,5.80
2016,03,14,03,25,5.20
2016,03,14,03,26,2.20
2016,03,14,03,27,0.90
2016,03,14,03,28,3.40
2016,03,14,03,29,4.70
2016,03,14,03,30,5.80
2016,03,14,03,31,7.10
2016,03,14,03,32,4.60
2016,03,14,03,33,6.00
2016,03,14,03,34,4.70
2016,03,14,03,35,1.00
2016,03,14,03,36,1.80
2016,03,14,03,37,2.10
2016,03,14,03,38,0.60
2016,03,14,03,39,3.90
2016,03,14,03,40,2.50
2016,03,14,03,41,4.50
2016,03,14,03,42,3.70
2016,03,14,03,43,6.80
2016,03,14,03,44,10.30
2016,03,14,03,45,8.30
2016,03,14,03,46,3.50
2016,03,14,03,47,1.20
2016,03,14,03,48,0.00
2016,03,14,03,49,0.00
2016,03,14,03,50,0.00
2016,03,14,03,51,1.40
2016,03,14,03,52,3.80
2016,03,14,03,53,8.40
2016,03,14,03,54,6.90
2016,03,14,03,55,6.70
2016,03,14,03,56,12.00
2016,03,14,03,57,12.80
2016,03,14,03,58,10.50
2016,03,14,03,59,14.30
2016,03,14,04,00,12.70
2016,03,14,04,01,10.80
2016,03,14,04,02,7.70
2016,03,14,04,03,4.80
2016,03,14,04,04,5.70
2016,03,14,04,05,2.70
2016,03,14,04,06,2.60
2016,03,14,04,07,3.50
2016,03,14,04,08,1.90
2016,03,14,04,09,0.90
2016,03,14,04,10,0.90
2016,03,14,04,11,2.00
2016,03,14,04,12,4.90
2016,03,14,04,13,6.80
2016,03,14,04,14,5.60
2016,03,14,04,15,5.20
2016,03,14,04,16,2.80
2016,03,14,04,17,3.80
2016,03,14,04,18,5.10
2016,03,14,04,19,3.30
2016,03,14,04,20,1.00
2016,03,14,04,21,0.00
2016,03,14,04,22,0.80
2016,03,14,04,23,7.60
2016,03,14,04,24,8.40
2016,03,14,04,25,6.00
2016,03,14,04,26,5.90
2016,03,14,04,27,3.80
2016,03,14,04,28,4.00
2016,03,14,04,29,3.30
2016,03,14,04,30,3.90
2016,03,14,04,31,5.30
2016,03,14,04,32,4.50
2016,03,14,04,33,3.60
2016,03,14,04,34,5.50
2016,03,14,04,35,4.20
2016,03,14,04,36,5.30
2016,03,14,04,37,6.30
2016,03,14,04,38,7.00
2016,03,14,04,39,4.80
2016,03,14,04,40,5.30
2016,03,14,04,41,9.70
2016,03,14,04,42,8.30
2016,03,14,04,43,7.70
2016,03,14,04,44,6.80
2016,03,14,04,45,5.30
2016,03,14,04,46,4.30
2016,03,14,04,47,4.40
2016,03,14,04,48,1.40
2016,03,14,04,49,5.50
2016,03,14,04,50,4.70
2016,03,14,04,51,7.60
2016,03,14,04,52,5.60
2016,03,14,04,53,5.20
2016,03,14,04,54,5.30
2016,03,14,04,55,7.60
2016,03,14,04,56,5.80
2016,03,14,04,57,6.30
2016,03,14,04,58,6.40
2016,03,14,04,59,11.00
2016,03,14,05,00,9.10
2016,03,14,05,01,6.10
2016,03,14,05,02,4.00
2016,03,14,05,03,7.00
2016,03,14,05,04,6.60
2016,03,14,05,05,11.60
2016,03,14,05,06,14.60
2016,03,14,05,07,16.00
2016,03,14,05,08,13.90
2016,03,14,05,09,11.30
2016,03,14,05,10,14.10
2016,03,14,05,11,13.80
2016,03,14,05,12,8.50
2016,03,14,05,13,7.30
2016,03,14,05,14,9.00
2016,03,14,05,15,7.70
2016,03,14,05,16,8.10
2016,03,14,05,17,7.50
2016,03,14,05,18,8.90
2016,03,14,05,19,10.40
2016,03,14,05,20,9.40
2016,03,14,05,21,9.60
2016,03,14,05,22,8.70
2016,03,14,05,23,12.50
2016,03,14,05,24,12.20
2016,03,14,05,25,10.10
2016,03,14,05,26,11.50
2016,03,14,05,27,16.20
2016,03,14,05,28,14.10
2016,03,14,05,29,14.60
2016,03,14,05,30,9.30
2016,03,14,05,31,10.40
2016,03,14,05,32,13.70
2016,03,14,05,33,14.40
2016,03,14,05,34,8.60
2016,03,14,05,35,12.00
2016,03,14,05,36,10.00
2016,03,14,05,37,5.20
2016,03,14,05,38,7.20
2016,03,14,05,39,7.40
2016,03,14,05,40,7.00
2016,03,14,05,41,8.90
2016,03,14,05,42,9.60
2016,03,14,05,43,7.90
2016,03,14,05,44,5.70
2016,03,14,05,45,4.60
2016,03,14,05,46,7.70
2016,03,14,05,47,5.80
2016,03,14,05,48,7.10
2016,03,14,05,49,7.60
2016,03,14,05,50,6.40
2016,03,14,05,51,8.90
2016,03,14,05,52,9.60
2016,03,14,05,53,8.60
2016,03,14,05,54,9.60
2016,03,14,05,55,9.90
2016,03,14,05,56,8.80
2016,03,14,05,57,7.10
2016,03,14,05,58,8.50
2016,03,14,05,59,10.80
2016,03,14,06,00,12.80
2016,03,14,06,01,11.40
2016,03,14,06,02,7.10
2016,03,14,06,03,11.70
2016,03,14,06,04,10.90
2016,03,14,06,05,11.50
2016,03,14,06,06,12.30
2016,03,14,06,07,11.20
2016,03,14,06,08,9.70
2016,03,14,06,09,7.60
2016,03,14,06,10,8.80
2016,03,14,06,11,5.80
2016,03,14,06,12,3.10
2016,03,14,06,13,4.40
2016,03,14,06,14,9.70
2016,03,14,06,15,8.40
2016,03,14,06,16,7.70
2016,03,14,06,17,8.40
2016,03,14,06,18,5.90
2016,03,14,06,19,10.10
2016,03,14,06,20,8.60
2016,03,14,06,21,7.90
2016,03,14,06,22,15.50
2016,03,14,06,23,11.40
2016,03,14,06,24,9.50
2016,03,14,06,25,10.00
2016,03,14,06,26,9.70
2016,03,14,06,27,8.20
2016,03,14,06,28,12.20
2016,03,14,06,29,9.40
2016,03,14,06,30,9.10
2016,03,14,06,31,8.80
2016,03,14,06,32,6.80
2016,03,14,06,33,5.20
2016,03,14,06,34,3.50
2016,03,14,06,35,5.00
2016,03,14,06,36,4.30
2016,03,14,06,37,2.00
2016,03,14,06,38,2.20
2016,03,14,06,39,0.90
2016,03,14,06,40,1.00
2016,03,14,06,41,3.60
2016,03,14,06,42,4.70
2016,03,14,06,43,5.80
2016,03,14,06,44,2.00
2016,03,14,06,45,6.70
2016,03,14,06,46,5.10
2016,03,14,06,47,6.00
2016,03,14,06,48,3.70
2016,03,14,06,49,2.70
2016,03,14,06,50,2.80
2016,03,14,06,51,6.10
2016,03,14,06,52,4.10
2016,03,14,06,53,5.20
2016,03,14,06,54,4.70
2016,03,14,06,55,3.60
2016,03,14,06,56,4.60
2016,03,14,06,57,1.40
2016,03,14,06,58,3.00
2016,03,14,06,59,5.10
2016,03,14,07,00,3.90
2016,03,14,07,01,1.40
2016,03,14,07,02,2.60
2016,03,14,07,03,2.30
2016,03,14,07,04,0.20
2016,03,14,07,05,1.60
2016,03,14,07,06,0.10
2016,03,14,07,07,2.10
2016,03,14,07,08,1.00
2016,03,14,07,09,0.00
2016,03,14,07,10,0.00
2016,03,14,07,11,0.00
2016,03,14,07,12,0.00
2016,03,14,07,13,1.20
2016,03,14,07,14,7.50
2016,03,14,07,15,3.90
2016,03,14,07,16,3.00
2016,03,14,07,17,2.60
2016,03,14,07,18,0.30
2016,03,14,07,19,4.60
2016,03,14,07,20,1.40
2016,03,14,07,21,0.70
2016,03,14,07,22,0.00
2016,03,14,07,23,2.50
2016,03,14,07,24,1.40
2016,03,14,07,25,1.60
2016,03,14,07,26,3.30
2016,03,14,07,27,0.90
2016,03,14,07,28,1.50
2016,03,14,07,29,2.00
2016,03,14,07,30,0.00
2016,03,14,07,31,0.00
2016,03,14,07,32,0.00
2016,03,14,07,33,0.00
2016,03,14,07,34,0.00
2016,03,14,07,35,3.30
2016,03,14,07,36,1.10
2016,03,14,07,37,0.00
2016,03,14,07,38,0.00
2016,03,14,07,39,0.00
2016,03,14,07,40,0.00
2016,03,14,07,41,0.00
2016,03,14,07,42,0.00
2016,03,14,07,43,0.00
2016,03,14,07,44,0.00
2016,03,14,07,45,0.20
2016,03,14,07,46,2.30
2016,03,14,07,47,0.30
2016,03,14,07,48,0.00
2016,03,14,07,49,0.00
2016,03,14,07,50,0.00
2016,03,14,07,51,0.00
2016,03,14,07,52,0.00
2016,03,14,07,53,0.00
2016,03,14,07,54,0.00
2016,03,14,07,55,0.00
2016,03,14,07,56,0.00
2016,03,14,07,57,0.00
2016,03,14,07,58,0.00
2016,03,14,07,59,0.00
2016,03,14,08,00,0.00
2016,03,14,08,01,0.00
2016,03,14,08,02,0.00
2016,03,14,08,03,0.00
2016,03,14,08,04,0.00
2016,03,14,08,05,0.00
2016,03,14,08,06,0.00
2016,03,14,08,07,0.00
2016,03,14,08,08,0.00
2016,03,14,08,09,0.00
2016,03,14,08,10,0.00
2016,03,14,08,11,0.00
2016,03,14,08,12,0.00
2016,03,14,08,13,0.00
2016,03,14,08,14,0.00
2016,03,14,08,15,0.00
2016,03,14,08,16,0.00
2016,03,14,08,17,0.00
2016,03,14,08,18,0.00
2016,03,14,08,19,0.00
2016,03,14,08,20,0.00
2016,03,14,08,21,0.00
2016,03,14,08,22,0.00
2016,03,14,08,23,0.00
2016,03,14,08,24,0.00
2016,03,14,08,25,0.00
2016,03,14,08,26,0.00
2016,03,14,08,27,0.00
2016,03,14,08,28,0.00
2016,03,14,08,29,0.00
2016,03,14,08,30,0.00
2016,03,14,08,31,0.00
2016,03,14,08,32,0.00
2016,03,14,08,33,0.00
2016,03,14,08,34,0.00
2016,03,14,08,35,0.00
2016,03,14,08,36,0.00
2016,03,14,08,37,0.00
2016,03,14,08,38,0.00
2016,03,14,08,39,0.00
2016,03,14,08,40,0.00
2016,03,14,08,41,0.00
2016,03,14,08,42,0.00
2016,03,14,08,43,0.00
2016,03,14,08,44,0.00
2016,03,14,08,45,0.00
2016,03,14,08,46,0.00
2016,03,14,08,47,0.00
2016,03,14,08,48,0.00
2016,03,14,08,49,0.00
2016,03,14,08,50,0.00
2016,03,14,08,51,0.00
2016,03,14,08,52,0.00
2016,03,14,08,53,0.10
2016,03,14,08,54,0.00
2016,03,14,08,55,0.00
2016,03,14,08,56,0.00
2016,03,14,08,57,0.00
2016,03,14,08,58,0.00
2016,03,14,08,59,0.00
2016,03,14,09,00,0.00
2016,03,14,09,01,0.00
2016,03,14,09,02,0.00
2016,03,14,09,03,0.00
2016,03,14,09,04,0.00
2016,03,14,09,05,0.00
2016,03,14,09,06,0.00
2016,03,14,09,07,0.00
2016,03,14,09,08,0.00
2016,03,14,09,09,0.00
2016,03,14,09,10,0.00
2016,03,14,09,11,0.30
2016,03,14,09,12,1.60
2016,03,14,09,13,1.80
2016,03,14,09,14,1.20
2016,03,14,09,15,0.00
2016,03,14,09,16,0.60
2016,03,14,09,17,0.80
2016,03,14,09,18,1.70
2016,03,14,09,19,1.90
2016,03,14,09,20,0.50
2016,03,14,09,21,2.70
2016,03,14,09,22,1.10
2016,03,14,09,23,2.30
2016,03,14,09,24,3.10
2016,03,14,09,25,4.60
2016,03,14,09,26,3.50
2016,03,14,09,27,6.00
2016,03,14,09,28,8.20
2016,03,14,09,29,6.10
2016,03,14,09,30,3.70
2016,03,14,09,31,4.90
2016,03,14,09,32,5.70
2016,03,14,09,33,6.30
2016,03,14,09,34,10.00
2016,03,14,09,35,5.90
2016,03,14,09,36,5.30
2016,03,14,09,37,4.30
2016,03,14,09,38,4.70
2016,03,14,09,39,3.50
2016,03,14,09,40,5.40
2016,03,14,09,41,5.50
2016,03,14,09,42,7.00
2016,03,14,09,43,3.90
2016,03,14,09,44,8.90
2016,03,14,09,45,3.60
2016,03,14,09,46,5.20
2016,03,14,09,47,5.40
2016,03,14,09,48,4.10
2016,03,14,09,49,4.10
2016,03,14,09,50,5.00
2016,03,14,09,51,6.80
2016,03,14,09,52,4.70
2016,03,14,09,53,4.10
2016,03,14,09,54,5.30
2016,03,14,09,55,5.10
2016,03,14,09,56,4.80
2016,03,14,09,57,4.80
2016,03,14,09,58,2.90
2016,03,14,09,59,6.40
2016,03,14,10,00,5.60
2016,03,14,10,01,6.00
2016,03,14,10,02,4.60
2016,03,14,10,03,4.10
2016,03,14,10,04,5.20
2016,03,14,10,05,3.60
2016,03,14,10,06,6.90
2016,03,14,10,07,4.70
2016,03,14,10,08,4.20
2016,03,14,10,09,4.60
2016,03,14,10,10,4.80
2016,03,14,10,11,6.20
2016,03,14,10,12,8.10
2016,03,14,10,13,5.90
2016,03,14,10,14,2.40
2016,03,14,10,15,4.90
2016,03,14,10,16,5.00
2016,03,14,10,17,6.40
2016,03,14,10,18,8.40
2016,03,14,10,19,9.60
2016,03,14,10,20,8.20
2016,03,14,10,21,12.90
2016,03,14,10,22,7.70
2016,03,14,10,23,9.00
2016,03,14,10,24,12.60
2016,03,14,10,25,11.60
2016,03,14,10,26,9.70
2016,03,14,10,27,12.60
2016,03,14,10,28,9.70
2016,03,14,10,29,7.20
2016,03,14,10,30,8.10
2016,03,14,10,31,6.00
2016,03,14,10,32,8.90
2016,03,14,10,33,8.80
2016,03,14,10,34,9.60
2016,03,14,10,35,6.80
2016,03,14,10,36,5.30
2016,03,14,10,37,10.20
2016,03,14,10,38,8.90
2016,03,14,10,39,5.60
2016,03,14,10,40,6.50
2016,03,14,10,41,5.50
2016,03,14,10,42,7.10
2016,03,14,10,43,9.60
2016,03,14,10,44,11.10
2016,03,14,10,45,8.40
2016,03,14,10,46,8.50
2016,03,14,10,47,6.80
2016,03,14,10,48,10.60
2016,03,14,10,49,10.10
2016,03,14,10,50,8.00
2016,03,14,10,51,8.50
2016,03,14,10,52,7.20
2016,03,14,10,53,3.40
2016,03,14,10,54,9.30
2016,03,14,10,55,9.50
2016,03,14,10,56,9.40
2016,03,14,10,57,8.30
2016,03,14,10,58,11.00
2016,03,14,10,59,13.70
2016,03,14,11,00,10.90
2016,03,14,11,01,14.60
2016,03,14,11,02,10.50
2016,03,14,11,03,12.30
2016,03,14,11,04,15.40
2016,03,14,11,05,17.90
2016,03,14,11,06,11.70
2016,03,14,11,07,11.80
2016,03,14,11,08,10.70
2016,03,14,11,09,7.70
2016,03,14,11,10,6.50
2016,03,14,11,11,7.50
2016,03,14,11,12,4.90
2016,03,14,11,13,4.10
2016,03,14,11,14,4.30
2016,03,14,11,15,9.70
2016,03,14,11,16,8.20
2016,03,14,11,17,7.80
2016,03,14,11,18,8.50
2016,03,14,11,19,7.20
2016,03,14,11,20,7.20
2016,03,14,11,21,7.50
2016,03,14,11,22,4.50
2016,03,14,11,23,7.00
2016,03,14,11,24,7.80
2016,03,14,11,25,7.10
2016,03,14,11,26,6.40
2016,03,14,11,27,8.60
2016,03,14,11,28,10.80
2016,03,14,11,29,7.50
2016,03,14,11,30,7.70
2016,03,14,11,31,6.00
2016,03,14,11,32,5.20
2016,03,14,11,33,5.70
2016,03,14,11,34,6.40
2016,03,14,11,35,5.60
2016,03,14,11,36,5.10
2016,03,14,11,37,5.00
2016,03,14,11,38,8.40
2016,03,14,11,39,6.80
2016,03,14,11,40,8.20
2016,03,14,11,41,11.40
2016,03,14,11,42,8.00
2016,03,14,11,43,7.80
2016,03,14,11,44,8.30
2016,03,14,11,45,10.30
2016,03,14,11,46,10.80
2016,03,14,11,47,11.40
2016,03,14,11,48,7.20
2016,03,14,11,49,13.00
2016,03,14,11,50,10.40
2016,03,14,11,51,7.30
2016,03,14,11,52,5.00
2016,03,14,11,53,3.50
2016,03,14,11,54,5.50
2016,03,14,11,55,1.70
2016,03,14,11,56,1.10
2016,03,14,11,57,7.60
2016,03,14,11,58,6.90
2016,03,14,11,59,3.80
2016,03,14,12,00,6.60
2016,03,14,12,01,6.60
2016,03,14,12,02,5.90
2016,03,14,12,03,7.70
2016,03,14,12,04,8.20
2016,03,14,12,05,5.90
2016,03,14,12,06,4.40
2016,03,14,12,07,3.70
2016,03,14,12,08,3.30
2016,03,14,12,09,5.20
2016,03,14,12,10,3.60
2016,03,14,12,11,0.60
2016,03,14,12,12,0.50
2016,03,14,12,13,1.40
2016,03,14,12,14,0.10
2016,03,14,12,15,0.10
2016,03,14,12,16,3.80
2016,03,14,12,17,3.30
2016,03,14,12,18,4.80
2016,03,14,12,19,2.70
2016,03,14,12,20,2.50
2016,03,14,12,21,5.20
2016,03,14,12,22,9.80
2016,03,14,12,23,6.60
2016,03,14,12,24,5.30
2016,03,14,12,25,7.50
2016,03,14,12,26,5.60
2016,03,14,12,27,6.30
2016,03,14,12,28,6.10
2016,03,14,12,29,6.70
2016,03,14,12,30,2.00
2016,03,14,12,31,1.90
2016,03,14,12,32,3.40
2016,03,14,12,33,2.00
2016,03,14,12,34,7.60
2016,03,14,12,35,3.10
2016,03,14,12,36,6.10
2016,03,14,12,37,5.00
2016,03,14,12,38,8.40
2016,03,14,12,39,10.50
2016,03,14,12,40,4.90
2016,03,14,12,41,6.80
2016,03,14,12,42,6.30
2016,03,14,12,43,3.60
2016,03,14,12,44,7.30
2016,03,14,12,45,7.00
2016,03,14,12,46,5.20
2016,03,14,12,47,4.60
2016,03,14,12,48,4.00
2016,03,14,12,49,5.90
2016,03,14,12,50,5.20
2016,03,14,12,51,6.50
2016,03,14,12,52,6.90
2016,03,14,12,53,5.90
2016,03,14,12,54,7.40
2016,03,14,12,55,7.00
2016,03,14,12,56,6.60
2016,03,14,12,57,7.70
2016,03,14,12,58,5.70
2016,03,14,12,59,6.60
2016,03,14,13,00,7.60
2016,03,14,13,01,6.70
2016,03,14,13,02,8.50
2016,03,14,13,03,7.40
2016,03,14,13,04,5.50
2016,03,14,13,05,11.80
2016,03,14,13,06,13.20
2016,03,14,13,07,15.40
2016,03,14,13,08,11.20
2016,03,14,13,09,7.50
2016,03,14,13,10,7.30
2016,03,14,13,11,9.50
2016,03,14,13,12,12.50
2016,03,14,13,13,14.40
2016,03,14,13,14,9.70
2016,03,14,13,15,8.40
2016,03,14,13,16,8.80
2016,03,14,13,17,12.10
2016,03,14,13,18,8.50
2016,03,14,13,19,7.70
2016,03,14,13,20,5.50
2016,03,14,13,21,3.90
2016,03,14,13,22,6.40
2016,03,14,13,23,9.00
2016,03,14,13,24,5.00
2016,03,14,13,25,7.00
2016,03,14,13,26,7.40
2016,03,14,13,27,4.70
2016,03,14,13,28,9.20
2016,03,14,13,29,7.30
2016,03,14,13,30,6.00
2016,03,14,13,31,5.30
2016,03,14,13,32,13.10
2016,03,14,13,33,10.70
2016,03,14,13,34,10.90
2016,03,14,13,35,10.30
2016,03,14,13,36,6.20
2016,03,14,13,37,4.50
2016,03,14,13,38,5.10
2016,03,14,13,39,8.00
2016,03,14,13,40,12.90
2016,03,14,13,41,13.80
2016,03,14,13,42,7.50
2016,03,14,13,43,6.20
2016,03,14,13,44,5.70
2016,03,14,13,45,6.10
2016,03,14,13,46,4.90
2016,03,14,13,47,4.70
2016,03,14,13,48,6.30
2016,03,14,13,49,12.70
2016,03,14,13,50,12.10
2016,03,14,13,51,9.50
2016,03,14,13,52,10.50
2016,03,14,13,53,15.10
2016,03,14,13,54,11.00
2016,03,14,13,55,13.00
2016,03,14,13,56,6.30
2016,03,14,13,57,1.00
2016,03,14,13,58,6.90
2016,03,14,13,59,13.30
2016,03,14,14,00,11.00
2016,03,14,14,01,13.00
2016,03,14,14,02,10.60
2016,03,14,14,03,11.60
2016,03,14,14,04,21.70
2016,03,14,14,05,19.40
2016,03,14,14,06,13.60
2016,03,14,14,07,21.70
2016,03,14,14,08,22.60
2016,03,14,14,09,17.20
2016,03,14,14,10,13.40
2016,03,14,14,11,12.10
2016,03,14,14,12,13.80
2016,03,14,14,13,14.40
2016,03,14,14,14,10.70
2016,03,14,14,15,11.60
2016,03,14,14,16,9.90
2016,03,14,14,17,9.10
2016,03,14,14,18,7.20
2016,03,14,14,19,10.30
2016,03,14,14,20,16.50
2016,03,14,14,21,20.20
2016,03,14,14,22,15.30
2016,03,14,14,23,12.80
2016,03,14,14,24,12.90
2016,03,14,14,25,11.00
2016,03,14,14,26,9.70
2016,03,14,14,27,11.30
2016,03,14,14,28,9.60
2016,03,14,14,29,11.90
2016,03,14,14,30,12.40
2016,03,14,14,31,9.70
2016,03,14,14,32,16.60
2016,03,14,14,33,17.40
2016,03,14,14,34,14.30
2016,03,14,14,35,12.60
2016,03,14,14,36,10.80
2016,03,14,14,37,9.40
2016,03,14,14,38,13.00
2016,03,14,14,39,15.00
2016,03,14,14,40,10.90
2016,03,14,14,41,11.30
2016,03,14,14,42,13.70
2016,03,14,14,43,15.50
2016,03,14,14,44,13.50
2016,03,14,14,45,17.60
2016,03,14,14,46,12.00
2016,03,14,14,47,15.80
2016,03,14,14,48,10.10
2016,03,14,14,49,11.70
2016,03,14,14,50,12.20
2016,03,14,14,51,13.70
2016,03,14,14,52,11.60
2016,03,14,14,53,19.10
2016,03,14,14,54,17.10
2016,03,14,14,55,27.60
2016,03,14,14,56,24.00
2016,03,14,14,57,20.40
2016,03,14,14,58,18.40
2016,03,14,14,59,17.50
2016,03,14,15,00,19.60
2016,03,14,15,01,17.20
2016,03,14,15,02,16.30
2016,03,14,15,03,11.30
2016,03,14,15,04,10.40
2016,03,14,15,05,13.00
2016,03,14,15,06,13.00
2016,03,14,15,07,11.30
2016,03,14,15,08,9.00
2016,03,14,15,09,12.70
2016,03,14,15,10,19.10
2016,03,14,15,11,17.50
2016,03,14,15,12,16.90
2016,03,14,15,13,7.90
2016,03,14,15,14,17.60
2016,03,14,15,15,13.60
2016,03,14,15,16,17.60
2016,03,14,15,17,13.80
2016,03,14,15,18,10.40
2016,03,14,15,19,14.20
2016,03,14,15,20,18.90
2016,03,14,15,21,16.30
2016,03,14,15,22,15.80
2016,03,14,15,23,14.40
2016,03,14,15,24,12.90
2016,03,14,15,25,19.50
2016,03,14,15,26,22.90
2016,03,14,15,27,20.80
2016,03,14,15,28,18.00
2016,03,14,15,29,20.40
2016,03,14,15,30,14.60
2016,03,14,15,31,15.50
2016,03,14,15,32,13.30
2016,03,14,15,33,14.90
2016,03,14,15,34,15.30
2016,03,14,15,35,12.80
2016,03,14,15,36,17.20
2016,03,14,15,37,11.00
2016,03,14,15,38,21.30
2016,03,14,15,39,16.70
2016,03,14,15,40,17.30
2016,03,14,15,41,12.60
2016,03,14,15,42,15.20
2016,03,14,15,43,16.20
2016,03,14,15,44,16.30
2016,03,14,15,45,15.90
2016,03,14,15,46,16.30
2016,03,14,15,47,19.80
2016,03,14,15,48,18.70
2016,03,14,15,49,9.70
2016,03,14,15,50,8.70
2016,03,14,15,51,11.60
2016,03,14,15,52,14.20
2016,03,14,15,53,21.30
2016,03,14,15,54,15.80
2016,03,14,15,55,15.30
2016,03,14,15,56,12.20
2016,03,14,15,57,14.90
2016,03,14,15,58,12.60
2016,03,14,15,59,14.50
2016,03,14,16,00,12.80
2016,03,14,16,01,10.60
2016,03,14,16,02,7.50
2016,03,14,16,03,10.80
2016,03,14,16,04,7.50
2016,03,14,16,05,9.00
2016,03,14,16,06,6.80
2016,03,14,16,07,7.50
2016,03,14,16,08,8.30
2016,03,14,16,09,10.90
2016,03,14,16,10,16.50
2016,03,14,16,11,15.30
2016,03,14,16,12,8.90
2016,03,14,16,13,4.30
2016,03,14,16,14,10.20
2016,03,14,16,15,15.10
2016,03,14,16,16,12.30
2016,03,14,16,17,18.90
2016,03,14,16,18,22.30
2016,03,14,16,19,16.70
2016,03,14,16,20,15.10
2016,03,14,16,21,12.00
2016,03,14,16,22,16.80
2016,03,14,16,23,19.00
2016,03,14,16,24,17.20
2016,03,14,16,25,15.90
2016,03,14,16,26,15.60
2016,03,14,16,27,8.60
2016,03,14,16,28,12.20
2016,03,14,16,29,21.70
2016,03,14,16,30,22.70
2016,03,14,16,31,18.30
2016,03,14,16,32,17.20
2016,03,14,16,33,13.90
2016,03,14,16,34,16.50
2016,03,14,16,35,14.40
2016,03,14,16,36,17.80
2016,03,14,16,37,18.70
2016,03,14,16,38,15.00
2016,03,14,16,39,15.00
2016,03,14,16,40,17.50
2016,03,14,16,41,16.70
2016,03,14,16,42,12.60
2016,03,14,16,43,14.10
2016,03,14,16,44,17.40
2016,03,14,16,45,23.00
2016,03,14,16,46,18.10
2016,03,14,16,47,20.40
2016,03,14,16,48,17.90
2016,03,14,16,49,11.00
2016,03,14,16,50,13.90
2016,03,14,16,51,11.30
2016,03,14,16,52,12.40
2016,03,14,16,53,14.50
2016,03,14,16,54,19.50
2016,03,14,16,55,19.60
2016,03,14,16,56,13.00
2016,03,14,16,57,16.40
2016,03,14,16,58,14.20
2016,03,14,16,59,24.30
2016,03,14,17,00,19.90
2016,03,14,17,01,21.20
2016,03,14,17,02,22.70
2016,03,14,17,03,20.20
2016,03,14,17,04,21.10
2016,03,14,17,05,17.60
2016,03,14,17,06,21.20
2016,03,14,17,07,16.30
2016,03,14,17,08,13.80
2016,03,14,17,09,16.70
2016,03,14,17,10,17.90
2016,03,14,17,11,15.90
2016,03,14,17,12,16.60
2016,03,14,17,13,20.40
2016,03,14,17,14,15.50
2016,03,14,17,15,22.50
2016,03,14,17,16,24.50
2016,03,14,17,17,10.60
2016,03,14,17,18,15.00
2016,03,14,17,19,16.80
2016,03,14,17,20,11.90
2016,03,14,17,21,15.40
2016,03,14,17,22,19.40
2016,03,14,17,23,14.30
2016,03,14,17,24,21.40
2016,03,14,17,25,19.50
2016,03,14,17,26,14.60
2016,03,14,17,27,11.90
2016,03,14,17,28,10.50
2016,03,14,17,29,18.00
2016,03,14,17,30,20.40
2016,03,14,17,31,19.60
2016,03,14,17,32,23.20
2016,03,14,17,33,23.00
2016,03,14,17,34,14.50
2016,03,14,17,35,16.30
2016,03,14,17,36,16.30
2016,03,14,17,37,16.00
2016,03,14,17,38,17.00
2016,03,14,17,39,14.20
2016,03,14,17,40,15.50
2016,03,14,17,41,17.10
2016,03,14,17,42,16.40
2016,03,14,17,43,11.80
2016,03,14,17,44,12.80
2016,03,14,17,45,9.30
2016,03,14,17,46,11.20
2016,03,14,17,47,13.50
2016,03,14,17,48,15.90
2016,03,14,17,49,10.80
2016,03,14,17,50,12.60
2016,03,14,17,51,14.50